Location: Follega
(52.8850°N, 5.7362°E)
Time: 21:39:43
(UTC+00:00)

Lacrosse 4 Rocket - Pass Details

Date: 01 June 2020
Orbit: 540 x 618 km, 68.0° (Epoch: 04 July)

Event Time Altitude Azimuth Distance (km) Brightness Sun altitude
Rises 22:58:06 0° 324° (NW) 2,874 6.2 -14.5°
Reaches altitude 10° 23:00:45 10° 338° (NNW) 1,954 5.4 -14.5°
Maximum altitude 23:04:20 24° 33° (NNE) 1,256 3.7 -14.6°
Drops below altitude 10° 23:07:50 10° 88° (E) 1,909 4.0 -14.7°
Sets 23:10:23 0° 102° (ESE) 2,789 4.7 -14.7°
